"Sample Date","Sample Time","Sensor Name","Sample Value","Units","Flow Rate","Sample Interval","Sample Volume","Laser Status","Number Channels","Micron Size 0","Counts/Channel 0","Micron Size 1","Counts/Channel 1","Micron Size 2","Counts/Channel 2","Micron Size 3","Counts/Channel 3","Micron Size 4","Counts/Channel 4","Micron Size 5","Counts/Channel 5","Micron Size 6","Counts/Channel 6","Micron Size 7","Counts/Channel 7","Micron Size 8","Counts/Channel 8","Micron Size 9","Counts/Channel 9","Micron Size 10","Counts/Channel 10","Micron Size 11","Counts/Channel 11","Micron Size 12","Counts/Channel 12","Micron Size 13","Counts/Channel 13","Micron Size 14","Counts/Channel 14","Micron Size 15","Counts/Channel 15","Micron Size 16","Counts/Channel 16","Micron Size 17","Counts/Channel 17","Micron Size 18","Counts/Channel 18","Micron Size 19","Counts/Channel 19","Micron Size 20","Counts/Channel 20","Micron Size 21","Counts/Channel 21","Micron Size 22","Counts/Channel 22","Micron Size 23","Counts/Channel 23","Micron Size 24","Counts/Channel 24","Micron Size 25","Counts/Channel 25","Micron Size 26","Counts/Channel 26","Micron Size 27","Counts/Channel 27","Micron Size 28","Counts/Channel 28","Micron Size 29","Counts/Channel 29","Micron Size 30","Counts/Channel 30","Micron Size 31","Counts/Channel 31"
"07/10/06","20:00:02","AMMA06",29358.000,"cc",28277.344,6.00,2827.735,1,6,0.100,15196.000,0.200,11767.000,0.300,2254.000,0.500,111.000,1.000,30.000,5.000,0
"07/10/06","20:00:08","AMMA06",29539.000,"cc",28309.381,6.00,2830.938,1,6,0.100,15284.000,0.200,11906.000,0.300,2234.000,0.500,90.000,1.000,25.000,5.000,0
"07/10/06","20:00:14","AMMA06",29539.000,"cc",28330.652,6.00,2833.065,1,6,0.100,15254.000,0.200,11861.000,0.300,2304.000,0.500,96.000,1.000,24.000,5.000,0
"07/10/06","20:00:20","AMMA06",29419.000,"cc",28317.389,6.00,2831.739,1,6,0.100,15363.000,0.200,11633.000,0.300,2282.000,0.500,105.000,1.000,36.000,5.000,0
"07/10/06","20:00:26","AMMA06",29447.000,"cc",28338.037,6.00,2833.804,1,6,0.100,15155.000,0.200,11783.000,0.300,2365.000,0.500,104.000,1.000,40.000,5.000,0
"07/10/06","20:00:32","AMMA06",29332.000,"cc",28345.205,6.00,2834.521,1,6,0.100,15183.000,0.200,11665.000,0.300,2344.000,0.500,91.000,1.000,49.000,5.000,0
"07/10/06","20:00:38","AMMA06",29306.000,"cc",28306.668,6.00,2830.667,1,6,0.100,15173.000,0.200,11738.000,0.300,2252.000,0.500,109.000,1.000,34.000,5.000,0
"07/10/06","20:00:44","AMMA06",29633.000,"cc",28307.633,6.00,2830.763,1,6,0.100,15363.000,0.200,11778.000,0.300,2346.000,0.500,103.000,1.000,43.000,5.000,0
"07/10/06","20:00:50","AMMA06",29365.000,"cc",28288.484,6.00,2828.849,1,6,0.100,15299.000,0.200,11668.000,0.300,2277.000,0.500,98.000,1.000,23.000,5.000,0
"07/10/06","20:00:56","AMMA06",29512.000,"cc",28293.500,6.00,2829.350,1,6,0.100,15352.000,0.200,11757.000,0.300,2268.000,0.500,102.000,1.000,33.000,5.000,0
"07/10/06","20:01:02","AMMA06",29707.000,"cc",28396.488,6.00,2839.649,1,6,0.100,15306.000,0.200,12019.000,0.300,2242.000,0.500,104.000,1.000,36.000,5.000,0
"07/10/06","20:01:08","AMMA06",29510.000,"cc",28317.090,6.00,2831.709,1,6,0.100,15248.000,0.200,11879.000,0.300,2252.000,0.500,94.000,1.000,37.000,5.000,0
"07/10/06","20:01:14","AMMA06",29856.000,"cc",28315.389,6.00,2831.539,1,6,0.100,15555.000,0.200,11913.000,0.300,2266.000,0.500,92.000,1.000,30.000,5.000,0
"07/10/06","20:01:20","AMMA06",29329.000,"cc",28277.783,6.00,2827.779,1,6,0.100,15285.000,0.200,11700.000,0.300,2217.000,0.500,90.000,1.000,37.000,5.000,0
"07/10/06","20:01:26","AMMA06",29587.000,"cc",28301.426,6.00,2830.143,1,6,0.100,15532.000,0.200,11689.000,0.300,2246.000,0.500,89.000,1.000,31.000,5.000,0
"07/10/06","20:01:32","AMMA06",29190.000,"cc",28274.117,6.00,2827.412,1,6,0.100,15352.000,0.200,11543.000,0.300,2161.000,0.500,87.000,1.000,47.000,5.000,0
"07/10/06","20:01:38","AMMA06",29380.000,"cc",28384.824,6.00,2838.483,1,6,0.100,15420.000,0.200,11684.000,0.300,2154.000,0.500,83.000,1.000,39.000,5.000,0
"07/10/06","20:01:44","AMMA06",28819.000,"cc",28298.346,6.00,2829.835,1,6,0.100,14985.000,0.200,11586.000,0.300,2132.000,0.500,88.000,1.000,28.000,5.000,0
"07/10/06","20:01:50","AMMA06",29511.000,"cc",28306.229,6.00,2830.623,1,6,0.100,15549.000,0.200,11708.000,0.300,2133.000,0.500,84.000,1.000,37.000,5.000,0
"07/10/06","20:01:56","AMMA06",29004.000,"cc",28286.846,6.00,2828.685,1,6,0.100,15308.000,0.200,11441.000,0.300,2150.000,0.500,82.000,1.000,23.000,5.000,0
"07/10/06","20:02:02","AMMA06",29346.000,"cc",28348.227,6.00,2834.823,1,6,0.100,15533.000,0.200,11556.000,0.300,2145.000,0.500,85.000,1.000,27.000,5.000,0
"07/10/06","20:02:08","AMMA06",29095.000,"cc",28310.336,6.00,2831.034,1,6,0.100,15506.000,0.200,11332.000,0.300,2138.000,0.500,86.000,1.000,33.000,5.000,0
"07/10/06","20:02:14","AMMA06",29136.000,"cc",28323.389,6.00,2832.339,1,6,0.100,15348.000,0.200,11561.000,0.300,2130.000,0.500,74.000,1.000,23.000,5.000,0
"07/10/06","20:02:20","AMMA06",29169.000,"cc",28362.525,6.00,2836.253,1,6,0.100,15528.000,0.200,11459.000,0.300,2064.000,0.500,89.000,1.000,29.000,5.000,0
"07/10/06","20:02:26","AMMA06",29138.000,"cc",28283.109,6.00,2828.311,1,6,0.100,15336.000,0.200,11523.000,0.300,2145.000,0.500,88.000,1.000,46.000,5.000,0
"07/10/06","20:02:32","AMMA06",28980.000,"cc",28307.279,6.00,2830.728,1,6,0.100,15266.000,0.200,11497.000,0.300,2078.000,0.500,103.000,1.000,36.000,5.000,0
"07/10/06","20:02:38","AMMA06",28953.000,"cc",28319.941,6.00,2831.994,1,6,0.100,15464.000,0.200,11369.000,0.300,2011.000,0.500,86.000,1.000,23.000,5.000,0
"07/10/06","20:02:44","AMMA06",28928.000,"cc",28291.190,6.00,2829.119,1,6,0.100,15358.000,0.200,11311.000,0.300,2138.000,0.500,88.000,1.000,33.000,5.000,0
"07/10/06","20:02:50","AMMA06",29174.000,"cc",28306.303,6.00,2830.630,1,6,0.100,15508.000,0.200,11448.000,0.300,2101.000,0.500,95.000,1.000,22.000,5.000,0
"07/10/06","20:02:56","AMMA06",29057.000,"cc",28338.252,6.00,2833.825,1,6,0.100,15548.000,0.200,11427.000,0.300,1965.000,0.500,87.000,1.000,30.000,5.000,0
"07/10/06","20:03:02","AMMA06",29001.000,"cc",28276.850,6.00,2827.685,1,6,0.100,15502.000,0.200,11371.000,0.300,2017.000,0.500,84.000,1.000,27.000,5.000,0
"07/10/06","20:03:08","AMMA06",29022.000,"cc",28336.869,6.00,2833.687,1,6,0.100,15584.000,0.200,11355.000,0.300,1968.000,0.500,88.000,1.000,27.000,5.000,0
"07/10/06","20:03:14","AMMA06",28684.000,"cc",28289.879,6.00,2828.988,1,6,0.100,15421.000,0.200,11122.000,0.300,2011.000,0.500,99.000,1.000,31.000,5.000,0
"07/10/06","20:03:20","AMMA06",28933.000,"cc",28295.701,6.00,2829.570,1,6,0.100,15585.000,0.200,11195.000,0.300,2038.000,0.500,87.000,1.000,28.000,5.000,0
"07/10/06","20:03:26","AMMA06",28765.000,"cc",28324.238,6.00,2832.424,1,6,0.100,15351.000,0.200,11326.000,0.300,1988.000,0.500,75.000,1.000,25.000,5.000,0
"07/10/06","20:03:32","AMMA06",28936.000,"cc",28326.697,6.00,2832.670,1,6,0.100,15583.000,0.200,11215.000,0.300,2023.000,0.500,89.000,1.000,26.000,5.000,0
"07/10/06","20:03:38","AMMA06",29297.000,"cc",28353.984,6.00,2835.399,1,6,0.100,15656.000,0.200,11513.000,0.300,1999.000,0.500,95.000,1.000,34.000,5.000,0
"07/10/06","20:03:44","AMMA06",29092.000,"cc",28324.867,6.00,2832.487,1,6,0.100,15384.000,0.200,11572.000,0.300,2016.000,0.500,86.000,1.000,34.000,5.000,0
"07/10/06","20:03:50","AMMA06",28950.000,"cc",28342.508,6.00,2834.251,1,6,0.100,15439.000,0.200,11369.000,0.300,2018.000,0.500,92.000,1.000,32.000,5.000,0
"07/10/06","20:03:56","AMMA06",28936.000,"cc",28318.135,6.00,2831.814,1,6,0.100,15395.000,0.200,11385.000,0.300,2047.000,0.500,89.000,1.000,20.000,5.000,0
"07/10/06","20:04:02","AMMA06",28857.000,"cc",28276.440,6.00,2827.644,1,6,0.100,15292.000,0.200,11389.000,0.300,2061.000,0.500,85.000,1.000,30.000,5.000,0
"07/10/06","20:04:08","AMMA06",29108.000,"cc",28306.615,6.00,2830.662,1,6,0.100,15253.000,0.200,11562.000,0.300,2157.000,0.500,103.000,1.000,33.000,5.000,0
"07/10/06","20:04:14","AMMA06",29086.000,"cc",28316.436,6.00,2831.644,1,6,0.100,15281.000,0.200,11540.000,0.300,2150.000,0.500,93.000,1.000,22.000,5.000,0
"07/10/06","20:04:20","AMMA06",29078.000,"cc",28330.045,6.00,2833.005,1,6,0.100,15185.000,0.200,11606.000,0.300,2164.000,0.500,96.000,1.000,27.000,5.000,0
"07/10/06","20:04:26","AMMA06",29463.000,"cc",28309.135,6.00,2830.914,1,6,0.100,15406.000,0.200,11735.000,0.300,2187.000,0.500,91.000,1.000,44.000,5.000,0
"07/10/06","20:04:32","AMMA06",29207.000,"cc",28335.811,6.00,2833.581,1,6,0.100,15174.000,0.200,11770.000,0.300,2149.000,0.500,86.000,1.000,28.000,5.000,0
"07/10/06","20:04:38","AMMA06",29417.000,"cc",28299.322,6.00,2829.932,1,6,0.100,15223.000,0.200,11802.000,0.300,2276.000,0.500,77.000,1.000,39.000,5.000,0
"07/10/06","20:04:44","AMMA06",29133.000,"cc",28300.984,6.00,2830.099,1,6,0.100,15234.000,0.200,11609.000,0.300,2176.000,0.500,93.000,1.000,21.000,5.000,0
"07/10/06","20:04:50","AMMA06",29186.000,"cc",28340.760,6.00,2834.076,1,6,0.100,15101.000,0.200,11690.000,0.300,2270.000,0.500,87.000,1.000,38.000,5.000,0
"07/10/06","20:04:56","AMMA06",29218.000,"cc",28343.844,6.00,2834.385,1,6,0.100,15092.000,0.200,11711.000,0.300,2291.000,0.500,93.000,1.000,31.000,5.000,0
"07/10/06","20:05:02","AMMA06",29297.000,"cc",28303.408,6.00,2830.341,1,6,0.100,15136.000,0.200,11800.000,0.300,2226.000,0.500,105.000,1.000,30.000,5.000,0
"07/10/06","20:05:08","AMMA06",29312.000,"cc",28272.508,6.00,2827.251,1,6,0.100,15173.000,0.200,11770.000,0.300,2243.000,0.500,99.000,1.000,27.000,5.000,0
"07/10/06","20:05:14","AMMA06",29407.000,"cc",28292.539,6.00,2829.254,1,6,0.100,15109.000,0.200,11943.000,0.300,2218.000,0.500,98.000,1.000,39.000,5.000,0
"07/10/06","20:05:20","AMMA06",29293.000,"cc",28386.303,6.00,2838.630,1,6,0.100,15170.000,0.200,11757.000,0.300,2240.000,0.500,96.000,1.000,30.000,5.000,0
"07/10/06","20:05:26","AMMA06",29536.000,"cc",28319.928,6.00,2831.993,1,6,0.100,15192.000,0.200,12019.000,0.300,2212.000,0.500,92.000,1.000,21.000,5.000,0
"07/10/06","20:05:32","AMMA06",29418.000,"cc",28322.631,6.00,2832.263,1,6,0.100,15172.000,0.200,11731.000,0.300,2365.000,0.500,115.000,1.000,35.000,5.000,0
"07/10/06","20:05:38","AMMA06",29423.000,"cc",28298.182,6.00,2829.818,1,6,0.100,15217.000,0.200,11829.000,0.300,2269.000,0.500,69.000,1.000,39.000,5.000,0
"07/10/06","20:05:44","AMMA06",29545.000,"cc",28308.094,6.00,2830.810,1,6,0.100,15242.000,0.200,11862.000,0.300,2301.000,0.500,101.000,1.000,39.000,5.000,0
"07/10/06","20:05:50","AMMA06",29331.000,"cc",28320.982,6.00,2832.098,1,6,0.100,15138.000,0.200,11832.000,0.300,2226.000,0.500,104.000,1.000,31.000,5.000,0
"07/10/06","20:05:56","AMMA06",29166.000,"cc",28297.451,6.00,2829.745,1,6,0.100,15066.000,0.200,11793.000,0.300,2179.000,0.500,91.000,1.000,37.000,5.000,0
"07/10/06","20:06:02","AMMA06",29508.000,"cc",28298.139,6.00,2829.814,1,6,0.100,15234.000,0.200,11902.000,0.300,2231.000,0.500,103.000,1.000,38.000,5.000,0
"07/10/06","20:06:08","AMMA06",29571.000,"cc",28325.137,6.00,2832.514,1,6,0.100,15274.000,0.200,11963.000,0.300,2238.000,0.500,65.000,1.000,31.000,5.000,0
"07/10/06","20:06:14","AMMA06",29362.000,"cc",28347.031,6.00,2834.703,1,6,0.100,15256.000,0.200,11766.000,0.300,2214.000,0.500,94.000,1.000,32.000,5.000,0
"07/10/06","20:06:20","AMMA06",29046.000,"cc",28324.629,6.00,2832.463,1,6,0.100,15125.000,0.200,11659.000,0.300,2142.000,0.500,88.000,1.000,32.000,5.000,0
"07/10/06","20:06:26","AMMA06",29142.000,"cc",28339.256,6.00,2833.926,1,6,0.100,15150.000,0.200,11747.000,0.300,2131.000,0.500,85.000,1.000,29.000,5.000,0
"07/10/06","20:06:32","AMMA06",28810.000,"cc",28321.732,6.00,2832.173,1,6,0.100,14860.000,0.200,11693.000,0.300,2122.000,0.500,96.000,1.000,39.000,5.000,0
"07/10/06","20:06:38","AMMA06",29344.000,"cc",28289.811,6.00,2828.981,1,6,0.100,14981.000,0.200,12000.000,0.300,2229.000,0.500,98.000,1.000,36.000,5.000,0
"07/10/06","20:06:44","AMMA06",29355.000,"cc",28288.051,6.00,2828.805,1,6,0.100,15337.000,0.200,11695.000,0.300,2193.000,0.500,95.000,1.000,35.000,5.000,0
"07/10/06","20:06:50","AMMA06",29112.000,"cc",28343.895,6.00,2834.390,1,6,0.100,15008.000,0.200,11732.000,0.300,2248.000,0.500,97.000,1.000,27.000,5.000,0
"07/10/06","20:06:56","AMMA06",29285.000,"cc",28297.940,6.00,2829.794,1,6,0.100,15079.000,0.200,11830.000,0.300,2231.000,0.500,109.000,1.000,36.000,5.000,0
"07/10/06","20:07:02","AMMA06",29731.000,"cc",28364.867,6.00,2836.487,1,6,0.100,15343.000,0.200,12057.000,0.300,2177.000,0.500,108.000,1.000,46.000,5.000,0
"07/10/06","20:07:08","AMMA06",29314.000,"cc",28280.053,6.00,2828.005,1,6,0.100,15321.000,0.200,11671.000,0.300,2192.000,0.500,91.000,1.000,39.000,5.000,0
"07/10/06","20:07:14","AMMA06",29518.000,"cc",28325.516,6.00,2832.552,1,6,0.100,15600.000,0.200,11578.000,0.300,2208.000,0.500,93.000,1.000,39.000,5.000,0
"07/10/06","20:07:20","AMMA06",29112.000,"cc",28326.928,6.00,2832.693,1,6,0.100,15188.000,0.200,11656.000,0.300,2144.000,0.500,88.000,1.000,36.000,5.000,0
"07/10/06","20:07:26","AMMA06",29393.000,"cc",28262.162,6.00,2826.216,1,6,0.100,15482.000,0.200,11724.000,0.300,2062.000,0.500,102.000,1.000,23.000,5.000,0
"07/10/06","20:07:32","AMMA06",29058.000,"cc",28357.891,6.00,2835.789,1,6,0.100,15157.000,0.200,11614.000,0.300,2141.000,0.500,118.000,1.000,28.000,5.000,0
"07/10/06","20:07:38","AMMA06",29371.000,"cc",28254.088,6.00,2825.409,1,6,0.100,15490.000,0.200,11631.000,0.300,2126.000,0.500,91.000,1.000,33.000,5.000,0
"07/10/06","20:07:44","AMMA06",29231.000,"cc",28288.133,6.00,2828.814,1,6,0.100,15270.000,0.200,11744.000,0.300,2109.000,0.500,78.000,1.000,30.000,5.000,0
"07/10/06","20:07:50","AMMA06",29145.000,"cc",28331.699,6.00,2833.170,1,6,0.100,15420.000,0.200,11594.000,0.300,2019.000,0.500,88.000,1.000,24.000,5.000,0
"07/10/06","20:07:56","AMMA06",29061.000,"cc",28321.094,6.00,2832.110,1,6,0.100,15137.000,0.200,11688.000,0.300,2115.000,0.500,93.000,1.000,28.000,5.000,0
"07/10/06","20:08:02","AMMA06",29043.000,"cc",28292.475,6.00,2829.248,1,6,0.100,15330.000,0.200,11540.000,0.300,2040.000,0.500,99.000,1.000,34.000,5.000,0
"07/10/06","20:08:08","AMMA06",29202.000,"cc",28321.178,6.00,2832.118,1,6,0.100,15298.000,0.200,11647.000,0.300,2135.000,0.500,91.000,1.000,31.000,5.000,0
"07/10/06","20:08:14","AMMA06",29057.000,"cc",28329.039,6.00,2832.904,1,6,0.100,15264.000,0.200,11641.000,0.300,2038.000,0.500,77.000,1.000,37.000,5.000,0
"07/10/06","20:08:20","AMMA06",29121.000,"cc",28307.184,6.00,2830.719,1,6,0.100,15136.000,0.200,11735.000,0.300,2109.000,0.500,107.000,1.000,34.000,5.000,0
"07/10/06","20:08:26","AMMA06",29278.000,"cc",28314.561,6.00,2831.456,1,6,0.100,15248.000,0.200,11867.000,0.300,2043.000,0.500,86.000,1.000,34.000,5.000,0
"07/10/06","20:08:32","AMMA06",28782.000,"cc",28362.772,6.00,2836.277,1,6,0.100,15052.000,0.200,11529.000,0.300,2088.000,0.500,86.000,1.000,27.000,5.000,0
"07/10/06","20:08:38","AMMA06",29380.000,"cc",28350.211,6.00,2835.021,1,6,0.100,15654.000,0.200,11566.000,0.300,2046.000,0.500,85.000,1.000,29.000,5.000,0
"07/10/06","20:08:44","AMMA06",28962.000,"cc",28328.549,6.00,2832.855,1,6,0.100,15218.000,0.200,11592.000,0.300,2037.000,0.500,86.000,1.000,29.000,5.000,0
"07/10/06","20:08:50","AMMA06",28795.000,"cc",28264.961,6.00,2826.496,1,6,0.100,14886.000,0.200,11681.000,0.300,2097.000,0.500,101.000,1.000,30.000,5.000,0
"07/10/06","20:08:56","AMMA06",29263.000,"cc",28298.297,6.00,2829.830,1,6,0.100,15543.000,0.200,11623.000,0.300,1994.000,0.500,79.000,1.000,24.000,5.000,0
"07/10/06","20:09:02","AMMA06",29393.000,"cc",28300.059,6.00,2830.006,1,6,0.100,15472.000,0.200,11762.000,0.300,2040.000,0.500,95.000,1.000,24.000,5.000,0
"07/10/06","20:09:08","AMMA06",28984.000,"cc",28292.906,6.00,2829.291,1,6,0.100,15205.000,0.200,11619.000,0.300,2033.000,0.500,91.000,1.000,36.000,5.000,0
"07/10/06","20:09:14","AMMA06",29161.000,"cc",28329.881,6.00,2832.988,1,6,0.100,15204.000,0.200,11794.000,0.300,2034.000,0.500,99.000,1.000,30.000,5.000,0
"07/10/06","20:09:20","AMMA06",29358.000,"cc",28326.191,6.00,2832.619,1,6,0.100,15407.000,0.200,11764.000,0.300,2070.000,0.500,90.000,1.000,27.000,5.000,0
"07/10/06","20:09:26","AMMA06",29253.000,"cc",28339.356,6.00,2833.936,1,6,0.100,15215.000,0.200,11775.000,0.300,2128.000,0.500,99.000,1.000,36.000,5.000,0
"07/10/06","20:09:32","AMMA06",29336.000,"cc",28318.623,6.00,2831.863,1,6,0.100,15394.000,0.200,11697.000,0.300,2127.000,0.500,96.000,1.000,22.000,5.000,0
"07/10/06","20:09:38","AMMA06",29258.000,"cc",28293.336,6.00,2829.334,1,6,0.100,15263.000,0.200,11803.000,0.300,2073.000,0.500,98.000,1.000,21.000,5.000,0
"07/10/06","20:09:44","AMMA06",29111.000,"cc",28295.457,6.00,2829.546,1,6,0.100,15000.000,0.200,11814.000,0.300,2173.000,0.500,95.000,1.000,29.000,5.000,0
"07/10/06","20:09:50","AMMA06",29308.000,"cc",28312.816,6.00,2831.282,1,6,0.100,15100.000,0.200,11909.000,0.300,2187.000,0.500,76.000,1.000,36.000,5.000,0
"07/10/06","20:09:56","AMMA06",29160.000,"cc",28324.832,6.00,2832.483,1,6,0.100,15129.000,0.200,11689.000,0.300,2210.000,0.500,95.000,1.000,37.000,5.000,0
"07/10/06","20:10:02","AMMA06",29477.000,"cc",28376.820,6.00,2837.682,1,6,0.100,15053.000,0.200,11954.000,0.300,2328.000,0.500,106.000,1.000,36.000,5.000,0
"07/10/06","20:10:08","AMMA06",29698.000,"cc",28364.363,6.00,2836.437,1,6,0.100,15167.000,0.200,12157.000,0.300,2248.000,0.500,87.000,1.000,39.000,5.000,0
"07/10/06","20:10:14","AMMA06",29960.000,"cc",28320.805,6.00,2832.081,1,6,0.100,15361.000,0.200,12097.000,0.300,2370.000,0.500,99.000,1.000,33.000,5.000,0
"07/10/06","20:10:20","AMMA06",29621.000,"cc",28276.895,6.00,2827.690,1,6,0.100,15139.000,0.200,12020.000,0.300,2313.000,0.500,105.000,1.000,44.000,5.000,0
"07/10/06","20:10:26","AMMA06",29476.000,"cc",28258.902,6.00,2825.890,1,6,0.100,14941.000,0.200,12051.000,0.300,2342.000,0.500,113.000,1.000,29.000,5.000,0
"07/10/06","20:10:32","AMMA06",29751.000,"cc",28280.453,6.00,2828.045,1,6,0.100,15161.000,0.200,11990.000,0.300,2452.000,0.500,120.000,1.000,28.000,5.000,0
"07/10/06","20:10:38","AMMA06",29809.000,"cc",28313.857,6.00,2831.386,1,6,0.100,15066.000,0.200,12121.000,0.300,2498.000,0.500,93.000,1.000,31.000,5.000,0
"07/10/06","20:10:44","AMMA06",29726.000,"cc",28330.971,6.00,2833.097,1,6,0.100,14899.000,0.200,12195.000,0.300,2505.000,0.500,94.000,1.000,33.000,5.000,0
"07/10/06","20:10:50","AMMA06",30172.000,"cc",28303.451,6.00,2830.345,1,6,0.100,15217.000,0.200,12409.000,0.300,2415.000,0.500,99.000,1.000,32.000,5.000,0
"07/10/06","20:10:56","AMMA06",29801.000,"cc",28327.906,6.00,2832.791,1,6,0.100,15042.000,0.200,12142.000,0.300,2491.000,0.500,99.000,1.000,27.000,5.000,0
"07/10/06","20:11:02","AMMA06",29839.000,"cc",28375.565,6.00,2837.557,1,6,0.100,15065.000,0.200,12204.000,0.300,2443.000,0.500,102.000,1.000,25.000,5.000,0
"07/10/06","20:11:08","AMMA06",29648.000,"cc",28276.188,6.00,2827.619,1,6,0.100,15049.000,0.200,12046.000,0.300,2421.000,0.500,95.000,1.000,37.000,5.000,0
"07/10/06","20:11:14","AMMA06",29625.000,"cc",28265.111,6.00,2826.511,1,6,0.100,15113.000,0.200,11981.000,0.300,2390.000,0.500,103.000,1.000,38.000,5.000,0
"07/10/06","20:11:20","AMMA06",29864.000,"cc",28355.512,6.00,2835.551,1,6,0.100,14930.000,0.200,12338.000,0.300,2446.000,0.500,111.000,1.000,39.000,5.000,0
"07/10/06","20:11:26","AMMA06",29500.000,"cc",28346.795,6.00,2834.680,1,6,0.100,14723.000,0.200,12214.000,0.300,2433.000,0.500,100.000,1.000,30.000,5.000,0
"07/10/06","20:11:32","AMMA06",29951.000,"cc",28264.320,6.00,2826.432,1,6,0.100,15261.000,0.200,12089.000,0.300,2474.000,0.500,94.000,1.000,33.000,5.000,0
"07/10/06","20:11:38","AMMA06",29823.000,"cc",28283.582,6.00,2828.358,1,6,0.100,15002.000,0.200,12331.000,0.300,2351.000,0.500,106.000,1.000,33.000,5.000,0
"07/10/06","20:11:44","AMMA06",29802.000,"cc",28369.166,6.00,2836.917,1,6,0.100,15047.000,0.200,12134.000,0.300,2481.000,0.500,109.000,1.000,31.000,5.000,0
"07/10/06","20:11:50","AMMA06",29876.000,"cc",28315.543,6.00,2831.554,1,6,0.100,15073.000,0.200,12258.000,0.300,2418.000,0.500,88.000,1.000,39.000,5.000,0
"07/10/06","20:11:56","AMMA06",30019.000,"cc",28326.598,6.00,2832.660,1,6,0.100,15113.000,0.200,12263.000,0.300,2514.000,0.500,93.000,1.000,36.000,5.000,0
"07/10/06","20:12:02","AMMA06",30020.000,"cc",28337.566,6.00,2833.757,1,6,0.100,15268.000,0.200,12182.000,0.300,2419.000,0.500,106.000,1.000,45.000,5.000,0
"07/10/06","20:12:08","AMMA06",29986.000,"cc",28313.922,6.00,2831.392,1,6,0.100,15248.000,0.200,12300.000,0.300,2331.000,0.500,74.000,1.000,33.000,5.000,0
"07/10/06","20:12:14","AMMA06",29730.000,"cc",28260.283,6.00,2826.029,1,6,0.100,14879.000,0.200,12289.000,0.300,2416.000,0.500,106.000,1.000,40.000,5.000,0
"07/10/06","20:12:20","AMMA06",30054.000,"cc",28390.729,6.00,2839.073,1,6,0.100,15254.000,0.200,12279.000,0.300,2396.000,0.500,89.000,1.000,36.000,5.000,0
"07/10/06","20:12:26","AMMA06",29790.000,"cc",28293.514,6.00,2829.352,1,6,0.100,15060.000,0.200,12185.000,0.300,2419.000,0.500,96.000,1.000,30.000,5.000,0
"07/10/06","20:12:32","AMMA06",29901.000,"cc",28284.320,6.00,2828.432,1,6,0.100,15219.000,0.200,12084.000,0.300,2459.000,0.500,104.000,1.000,35.000,5.000,0
"07/10/06","20:12:38","AMMA06",29677.000,"cc",28282.516,6.00,2828.252,1,6,0.100,15065.000,0.200,12185.000,0.300,2282.000,0.500,110.000,1.000,35.000,5.000,0
"07/10/06","20:12:44","AMMA06",29843.000,"cc",28314.908,6.00,2831.491,1,6,0.100,15153.000,0.200,12201.000,0.300,2342.000,0.500,108.000,1.000,39.000,5.000,0
"07/10/06","20:12:50","AMMA06",30118.000,"cc",28316.725,6.00,2831.673,1,6,0.100,15545.000,0.200,12121.000,0.300,2331.000,0.500,96.000,1.000,25.000,5.000,0
"07/10/06","20:12:56","AMMA06",29815.000,"cc",28352.027,6.00,2835.203,1,6,0.100,15365.000,0.200,11973.000,0.300,2335.000,0.500,103.000,1.000,39.000,5.000,0
"07/10/06","20:13:02","AMMA06",29854.000,"cc",28331.035,6.00,2833.104,1,6,0.100,15258.000,0.200,12216.000,0.300,2243.000,0.500,104.000,1.000,33.000,5.000,0
"07/10/06","20:13:08","AMMA06",29738.000,"cc",28337.850,6.00,2833.785,1,6,0.100,15269.000,0.200,12074.000,0.300,2265.000,0.500,100.000,1.000,30.000,5.000,0
"07/10/06","20:13:14","AMMA06",29720.000,"cc",28310.053,6.00,2831.005,1,6,0.100,15317.000,0.200,12046.000,0.300,2243.000,0.500,79.000,1.000,35.000,5.000,0
"07/10/06","20:13:20","AMMA06",29898.000,"cc",28319.315,6.00,2831.932,1,6,0.100,15378.000,0.200,12100.000,0.300,2290.000,0.500,99.000,1.000,31.000,5.000,0
"07/10/06","20:13:26","AMMA06",29759.000,"cc",28353.746,6.00,2835.375,1,6,0.100,15275.000,0.200,12128.000,0.300,2229.000,0.500,93.000,1.000,34.000,5.000,0
"07/10/06","20:13:32","AMMA06",29791.000,"cc",28302.125,6.00,2830.213,1,6,0.100,15533.000,0.200,11953.000,0.300,2178.000,0.500,93.000,1.000,34.000,5.000,0
"07/10/06","20:13:38","AMMA06",29883.000,"cc",28267.578,6.00,2826.758,1,6,0.100,15283.000,0.200,12146.000,0.300,2310.000,0.500,114.000,1.000,30.000,5.000,0
"07/10/06","20:13:44","AMMA06",30015.000,"cc",28328.031,6.00,2832.803,1,6,0.100,15520.000,0.200,12078.000,0.300,2281.000,0.500,108.000,1.000,28.000,5.000,0
"07/10/06","20:13:50","AMMA06",29792.000,"cc",28334.984,6.00,2833.499,1,6,0.100,15336.000,0.200,12103.000,0.300,2222.000,0.500,88.000,1.000,43.000,5.000,0
"07/10/06","20:13:56","AMMA06",29853.000,"cc",28290.547,6.00,2829.055,1,6,0.100,15287.000,0.200,12165.000,0.300,2267.000,0.500,97.000,1.000,37.000,5.000,0
"07/10/06","20:14:02","AMMA06",30014.000,"cc",28327.690,6.00,2832.769,1,6,0.100,15333.000,0.200,12356.000,0.300,2193.000,0.500,95.000,1.000,37.000,5.000,0
"07/10/06","20:14:08","AMMA06",30344.000,"cc",28320.996,6.00,2832.100,1,6,0.100,15624.000,0.200,12316.000,0.300,2265.000,0.500,115.000,1.000,24.000,5.000,0
"07/10/06","20:14:14","AMMA06",29983.000,"cc",28314.500,6.00,2831.450,1,6,0.100,15468.000,0.200,12150.000,0.300,2244.000,0.500,93.000,1.000,28.000,5.000,0
"07/10/06","20:14:20","AMMA06",29817.000,"cc",28338.836,6.00,2833.884,1,6,0.100,15279.000,0.200,12137.000,0.300,2283.000,0.500,86.000,1.000,32.000,5.000,0
"07/10/06","20:14:26","AMMA06",30081.000,"cc",28295.209,6.00,2829.521,1,6,0.100,15563.000,0.200,12083.000,0.300,2290.000,0.500,101.000,1.000,44.000,5.000,0